Temperature
4 5 5 4 4 5 5 5 5 6 6 6 6 5 5 5 5 5 5 4 4 4 4 4 5 5 5 6 6 6 7 7 7 7 7 7 7 7 7 6 6 6 6 6
3 5 5 4 4 4 5 5 5 5 5 5 5 5 5 4 4 4 4 4 4 4 4 4 4 4 4 5 5 5 6 6 6 6 6 6 6 6 6 6 6 6 5 5
3 4 4 3 3 4 4 4 4 4 4 5 4 4 4 4 4 3 3 3 3 3 3 3 3 4 4 4 4 4 5 5 5 6 6 6 6 5 5 5 5 5 5 5
2 3 2 3 4 4 4 4 4 4 4 4 4 4 4 3 3 3 3 2 2 3 3 3 3 3 3 3 3 4 4 4 5 5 5 5 5 5 5 5 4 4 4 4
2 2 2 3 3 3 3 3 3 3 3 3 3 3 3 3 3 2 2 2 2 2 2 2 3 3 3 3 3 3 3 3 4 4 4 4 4 4 4 4 4 4 4 4
1 1 2 2 3 3 3 2 2 2 2 2 2 1 1 2 2 1 1 1 1 1 1 2 2 2 2 2 2 3 3 3 3 3 3 3 3 3 3 3 3 3 3 3
1 1 1 2 2 3 2 1 2 2 2 1 1 1 1 1 1 1 1 0 1 1 1 1 1 1 2 2 2 2 2 2 2 2 2 2 2 2 2 2 2 2 2 2
0 0 0 1 1 1 0 1 1 1 1 1 0 0 -0 -0 -0 -0 -0 -0 -0 0 0 0 1 1 1 1 1 1 1 1 1 1 1 1 1 1 1 1 1 1 1 1
-0 -0 1 1 1 0 0 0 0 -0 -0 -0 -1 -1 -1 -1 -1 -1 -1 -1 -1 -1 -0 -0 0 0 1 1 0 1 1 1 1 1 1 1 1 1 1 1 1 1 1 1
-0 -0 0 0 0 -0 -0 -0 -1 -1 -1 -1 -1 -2 -2 -2 -2 -2 -2 -2 -2 -1 -1 -1 -0 -0 -0 -0 -0 0 0 0 0 0 0 0 -0 -0 0 0 -0 -0 -0 -0
-1 -0 -0 -0 -1 -1 -1 -1 -1 -1 -1 -1 -2 -2 -2 -2 -2 -2 -2 -2 -2 -2 -2 -1 -1 -1 -1 -1 -1 -1 -1 -1 -1 -1 -1 -1 -1 -1 -1 -1 -1 -1 -1 -1
-1 -1 -1 -1 -1 -1 -2 -2 -2 -2 -2 -2 -2 -2 -3 -3 -3 -3 -3 -3 -3 -2 -2 -2 -2 -2 -2 -2 -2 -1 -1 -1 -1 -1 -1 -1 -1 -1 -2 -2 -2 -2 -2 -2
-1 -1 -2 -2 -2 -2 -2 -2 -2 -2 -3 -3 -3 -3 -3 -3 -3 -3 -3 -3 -3 -3 -3 -3 -3 -3 -3 -3 -2 -2 -2 -2 -2 -2 -2 -2 -2 -2 -2 -2 -2 -2 -2 -2
-2 -2 -2 -3 -3 -3 -3 -3 -3 -3 -3 -3 -3 -4 -4 -4 -4 -4 -4 -4 -4 -4 -4 -3 -3 -3 -3 -3 -3 -3 -3 -3 -3 -3 -3 -3 -3 -3 -3 -3 -3 -3 -3 -3
-3 -3 -3 -3 -3 -4 -4 -4 -4 -4 -4 -4 -4 -4 -4 -4 -4 -4 -4 -4 -4 -4 -4 -4 -4 -4 -4 -4 -4 -4 -4 -4 -4 -4 -4 -4 -4 -4 -4 -4 -4 -4 -4 -3
-3 -3 -4 -4 -4 -4 -4 -4 -4 -5 -5 -5 -5 -5 -5 -5 -5 -5 -5 -4 -5 -5 -5 -5 -4 -5 -5 -4 -4 -4 -4 -4 -4 -4 -4 -4 -4 -4 -4 -4 -4 -4 -4 -4
-4 -4 -4 -4 -4 -5 -5 -5 -5 -5 -5 -5 -5 -5 -5 -5 -5 -5 -5 -5 -5 -5 -5 -5 -5 -5 -5 -5 -5 -5 -5 -5 -5 -5 -5 -5 -5 -5 -5 -5 -5 -5 -5 -5
-4 -4 -4 -4 -5 -5 -5 -5 -5 -5 -5 -6 -6 -6 -5 -5 -5 -5 -5 -5 -5 -5 -5 -5 -5 -5 -5 -6 -5 -5 -5 -5 -6 -6 -6 -6 -6 -6 -6 -6 -6 -6 -5 -6
-4 -4 -5 -5 -5 -5 -5 -5 -5 -5 -6 -6 -6 -6 -6 -6 -6 -6 -6 -6 -6 -6 -6 -6 -6 -6 -6 -6 -6 -6 -6 -6 -6 -6 -6 -6 -6 -6 -6 -6 -6 -6 -6 -6
-5 -5 -5 -5 -5 -5 -6 -6 -6 -6 -6 -6 -6 -6 -6 -6 -6 -6 -6 -6 -6 -6 -6 -6 -6 -6 -6 -6 -6 -6 -6 -7 -7 -7 -7 -6 -6 -6 -6 -6 -7 -7 -7 -7
-5 -5 -5 -5 -5 -6 -6 -6 -6 -6 -6 -6 -6 -6 -6 -6 -6 -6 -7 -7 -7 -7 -7 -7 -6 -6 -7 -7 -7 -7 -7 -7 -7 -7 -7 -7 -7 -7 -7 -7 -7 -7 -7 -7
-5 -6 -6 -6 -6 -6 -6 -6 -6 -6 -6 -7 -7 -7 -7 -7 -7 -7 -7 -7 -7 -7 -7 -7 -7 -7 -7 -7 -7 -7 -7 -7 -7 -7 -7 -7 -7 -7 -7 -7 -7 -7 -7 -7
-6 -6 -6 -6 -6 -6 -6 -6 -7 -7 -7 -7 -7 -7 -7 -7 -7 -7 -8 -8 -8 -8 -7 -7 -7 -7 -8 -7 -7 -7 -8 -8 -8 -8 -8 -8 -8 -8 -8 -8 -8 -8 -8 -8
-6 -6 -6 -6 -7 -7 -7 -7 -7 -7 -7 -7 -7 -8 -8 -8 -8 -8 -8 -8 -8 -8 -8 -8 -8 -8 -8 -8 -8 -8 -8 -8 -8 -8 -8 -8 -8 -8 -8 -8 -8 -8 -8 -8
-6 -6 -7 -7 -7 -7 -7 -7 -7 -7 -7 -8 -8 -8 -8 -8 -8 -8 -8 -8 -8 -8 -8 -8 -8 -8 -8 -8 -8 -8 -8 -8 -8 -8 -8 -8 -8 -8 -8 -8 -8 -8 -8 -8
-6 -6 -7 -7 -7 -7 -7 -7 -7 -8 -8 -8 -8 -8 -8 -8 -8 -8 -8 -8 -8 -9 -9 -9 -9 -9 -9 -9 -9 -9 -9 -9 -9 -9 -9 -9 -9 -9 -8 -8 -8 -8 -8 -8
-7 -7 -7 -7 -7 -8 -8 -8 -8 -8 -8 -8 -8 -8 -8 -9 -9 -9 -9 -9 -9 -9 -9 -9 -9 -9 -9 -9 -9 -9 -9 -9 -9 -9 -9 -9 -9 -9 -9 -9 -9 -9 -8 -8
Wind_Speed
5 5 3 3 4 4 4 4 3 4 4 4 5 3 4 5 5 5 5 4 4 4 4 4 5 5 5 5 4 5 5 4 4 4 4 4 3 3 3 2 2 1 1 1
4 3 2 3 5 6 6 5 5 5 5 5 5 3 4 4 4 4 4 4 3 4 4 4 4 5 5 4 4 5 5 4 4 4 4 4 3 3 3 2 1 1 1 1
3 4 2 3 4 4 4 3 4 5 5 4 5 4 4 4 3 3 2 3 3 3 3 3 4 5 5 4 5 5 5 4 4 4 4 3 3 3 2 1 1 1 0 0
2 2 2 2 1 2 3 2 3 2 3 4 4 3 5 4 3 3 3 3 3 3 4 4 5 5 5 5 5 5 5 5 4 4 4 3 3 3 1 1 1 0 0 0
1 2 3 2 2 2 3 3 4 3 3 4 3 3 5 7 6 4 4 3 3 4 4 5 5 5 5 5 5 5 5 4 4 4 3 3 3 2 1 1 1 1 1 1
2 2 2 2 4 4 1 2 5 4 4 4 4 2 3 6 6 6 5 4 4 4 5 5 4 4 5 5 5 5 4 4 3 3 3 2 2 1 1 1 0 1 1 1
3 2 2 3 5 2 0 3 5 3 3 3 2 1 2 4 5 5 5 5 5 4 4 4 4 4 5 5 5 3 3 4 3 3 2 2 2 1 1 1 1 1 1 1
2 2 3 4 3 1 2 3 5 5 4 3 2 3 3 4 4 5 5 5 4 4 4 4 4 4 5 4 3 3 3 3 3 2 2 2 2 1 1 1 1 1 1 1
2 3 1 2 2 2 3 4 4 4 3 3 3 3 3 4 4 4 4 4 4 4 4 4 4 4 4 2 2 3 3 3 3 3 2 2 1 1 1 1 1 0 0 0
3 3 3 2 2 3 3 4 4 3 2 2 2 2 2 3 3 3 3 4 3 4 4 4 4 4 3 3 3 3 3 2 2 2 2 2 2 1 1 0 0 0 1 1
4 4 5 3 3 4 4 4 4 3 3 2 1 2 2 2 2 3 3 3 3 3 3 3 4 4 4 3 3 3 2 2 2 2 2 2 2 2 1 1 1 1 1 1
4 3 3 4 4 4 4 4 3 3 3 3 2 2 2 2 2 2 2 3 3 3 3 3 3 4 4 4 3 2 2 2 1 1 1 1 1 2 4 3 3 2 2 2
4 4 4 4 4 4 3 3 2 2 2 2 2 2 2 2 2 2 2 2 2 2 2 3 3 3 3 3 3 3 2 1 1 1 1 1 1 1 2 4 4 3 2 2
3 4 4 3 3 3 3 2 2 2 2 2 1 1 1 1 2 2 2 2 2 2 2 2 3 3 3 3 3 3 2 2 1 1 0 1 1 1 1 2 2 2 3 3
3 3 3 3 3 2 2 1 1 2 2 2 2 1 1 1 1 2 2 2 2 2 3 3 3 3 3 3 3 2 2 1 1 1 1 1 1 1 1 1 1 2 2 2
3 2 2 2 2 2 1 1 1 2 1 1 1 1 1 1 1 1 1 1 1 2 2 2 2 3 3 2 2 2 1 2 1 1 1 1 1 1 1 1 1 2 2 2
2 2 2 2 3 2 2 2 2 1 1 1 1 1 0 1 1 1 1 1 1 1 1 1 2 3 2 2 2 1 1 1 2 1 1 1 1 1 1 1 1 2 2 3
1 2 2 2 2 2 2 1 1 1 1 1 1 0 1 1 0 1 1 2 2 2 2 2 2 2 2 2 1 1 1 1 1 1 1 1 1 1 1 1 1 2 2 3
0 1 1 1 1 1 1 1 1 1 1 1 0 1 1 0 0 1 1 1 1 1 2 2 3 3 2 2 2 1 1 1 2 2 1 2 2 1 1 1 1 2 2 2
0 0 0 1 1 1 1 1 1 1 1 1 1 1 1 1 1 1 1 1 1 0 1 2 2 2 2 2 3 1 1 1 1 2 2 1 1 1 1 1 2 2 2 2
1 0 1 1 1 1 1 1 1 1 1 1 1 1 1 1 1 1 1 1 1 2 2 2 2 1 1 2 2 1 1 1 1 1 2 2 1 2 2 2 2 2 2 2
1 1 1 0 1 1 1 1 1 1 1 2 2 1 1 1 1 1 1 0 1 2 2 1 1 2 2 3 1 1 1 2 2 2 2 2 2 2 2 2 2 2 2 3
1 1 1 1 1 0 1 1 1 1 1 1 1 1 1 1 1 1 1 1 1 2 2 1 2 3 4 3 2 2 2 2 2 2 2 2 2 2 2 2 3 3 3 3
2 1 1 1 1 1 0 0 1 1 1 1 1 0 1 1 1 1 1 1 2 2 2 2 3 4 4 3 2 2 2 2 2 2 2 2 2 2 2 2 3 3 3 3
2 2 2 2 1 1 1 1 1 1 1 1 1 1 1 1 1 1 1 1 2 3 2 3 5 5 4 2 2 2 2 2 2 2 2 2 2 2 3 3 3 3 3 3
2 2 2 2 2 1 1 1 1 1 1 0 1 1 1 1 1 1 1 1 1 2 2 2 2 3 2 2 2 2 2 3 3 3 2 3 3 3 3 3 4 3 3 4
2 2 1 1 1 1 1 1 1 1 1 1 1 1 1 1 1 1 1 1 1 1 1 1 2 2 2 2 2 2 2 2 2 3 3 3 3 3 3 4 4 4 5 5
Wind_Direction
281 277 265 286 288 279 249 253 251 275 280 310 335 2 28 36 40 51 62 65 70 71 75 77 81 80 84 87 86 90 95 98 105 103 101 99 101 107 109 113 120 140 158 159
279 267 249 297 303 283 267 264 260 272 283 317 336 21 33 33 36 42 44 44 60 72 77 82 88 90 84 84 86 88 93 91 91 96 96 93 91 91 89 86 83 94 117 138
276 300 307 285 283 270 260 271 268 264 280 325 353 18 29 22 21 33 39 39 45 64 80 85 90 95 93 86 88 91 90 88 86 88 94 92 88 84 81 75 69 84 92 103
280 314 237 243 320 298 265 295 318 316 347 2 0 16 29 17 22 32 31 37 44 55 67 78 87 86 85 89 91 93 92 88 82 82 85 85 89 87 75 69 63 59 34 21
252 248 251 273 326 300 265 287 342 327 330 340 352 18 16 20 25 31 35 46 47 51 67 75 86 92 91 92 92 89 84 82 81 80 81 79 76 77 71 72 51 43 41 53
261 248 251 317 340 331 290 278 350 348 336 347 3 6 335 6 22 27 37 51 55 55 62 69 72 88 94 91 89 85 81 72 70 75 82 82 71 46 41 62 30 31 31 21
257 248 272 332 324 334 210 285 344 354 357 10 5 323 346 18 28 34 38 48 54 63 68 70 73 80 86 80 77 74 80 79 67 66 70 70 61 48 46 52 39 31 29 14
255 239 266 345 6 31 313 344 358 5 12 17 18 26 29 30 33 37 40 42 49 61 61 55 61 80 79 68 64 68 76 81 76 67 59 55 58 36 27 55 61 40 27 8
222 233 290 14 16 1 355 343 346 350 360 14 14 19 33 35 36 36 41 35 39 55 57 47 48 70 84 63 61 72 76 72 63 58 55 48 56 38 15 32 76 28 359 333
264 272 308 335 347 351 343 330 333 339 347 15 15 11 28 33 35 36 40 42 38 47 56 46 42 53 63 50 48 71 80 70 64 60 48 38 35 27 12 347 0 307 277 279
264 287 298 299 328 332 337 348 353 356 359 5 14 3 11 17 17 21 34 37 44 50 56 47 43 45 43 42 45 57 67 63 57 49 41 34 27 19 352 303 250 249 236 233
268 287 284 301 331 344 340 336 343 353 350 348 351 345 357 7 12 18 28 41 46 43 46 42 45 43 31 33 40 51 59 49 47 48 35 25 18 8 6 350 347 322 284 270
280 311 306 304 323 335 332 335 347 348 337 342 351 3 2 0 12 16 20 28 32 35 40 45 49 39 24 26 34 37 35 31 30 32 29 12 360 350 340 352 1 356 346 334
304 308 294 298 305 319 327 342 358 354 354 353 355 6 8 11 17 17 11 8 21 37 37 38 42 33 20 25 33 29 19 12 11 6 354 326 304 302 309 314 326 344 355 357
284 281 272 290 303 312 321 342 345 326 336 349 357 0 10 17 10 1 2 18 33 37 25 23 28 16 14 23 24 14 3 4 8 350 342 336 322 314 310 303 308 320 335 348
286 279 270 275 279 295 318 309 294 299 317 334 350 356 6 7 342 344 6 32 48 32 15 18 10 355 6 19 12 358 352 353 348 342 345 347 335 320 315 315 316 317 318 326
281 274 273 276 285 297 302 298 285 284 305 301 305 333 8 339 338 354 11 31 50 53 24 17 2 5 14 19 12 356 350 340 341 347 338 321 314 306 302 305 307 309 309 309
250 257 266 260 268 284 297 312 314 317 310 299 322 319 292 271 285 351 15 36 46 46 31 21 18 14 10 8 13 2 348 334 331 320 316 306 305 300 295 285 287 296 307 317
265 266 291 296 286 275 288 310 325 347 356 351 338 293 303 4 67 58 51 54 47 20 4 21 20 16 5 2 9 3 351 337 330 323 310 305 322 316 299 289 294 302 312 322
296 348 27 27 29 34 10 3 20 20 11 54 96 87 60 39 45 57 59 40 27 30 6 11 14 4 5 3 9 1 343 323 317 319 323 315 310 314 315 312 312 315 318 317
223 166 83 56 28 32 31 25 52 48 34 57 84 90 70 38 39 45 44 28 25 56 40 22 19 6 7 0 2 358 341 332 339 340 334 329 326 330 332 329 325 321 317 317
209 173 167 139 86 29 18 35 62 73 59 53 63 74 72 45 34 29 26 30 28 34 31 22 13 7 4 4 8 8 9 12 6 357 347 344 342 337 335 332 329 326 325 325
183 172 174 176 177 142 45 49 65 78 73 60 65 80 81 46 40 42 1 27 47 23 25 25 20 14 9 19 24 22 19 12 4 357 352 346 338 332 327 326 325 324 322 322
171 168 167 147 114 103 76 24 67 71 69 48 53 101 110 77 35 38 68 43 30 27 31 22 18 15 17 31 25 17 11 4 358 352 349 346 343 340 335 328 323 321 319 318
169 159 144 139 161 203 217 148 102 81 76 60 42 58 76 84 95 61 57 46 30 30 27 12 11 15 26 23 12 6 3 2 356 354 353 344 339 336 331 327 324 319 316 313
169 181 187 191 194 192 163 146 146 150 144 125 74 78 80 75 76 78 74 59 36 18 17 7 2 10 17 10 7 0 354 348 348 350 342 335 332 329 325 324 321 319 315 313
164 165 152 160 172 154 147 152 157 164 160 148 118 99 104 96 86 79 69 54 31 15 2 1 8 13 11 8 0 351 344 338 333 329 327 327 324 321 319 318 317 314 313 310
Height
1461 1456 1457 1459 1460 1458 1457 1456 1458 1454 1453 1453 1452 1451 1450 1450 1449 1449 1449 1450 1450 1451 1451 1453 1454 1456 1457 1459 1461 1463 1465 1467 1470 1472 1475 1477 1479 1481 1482 1484 1485 1486 1487 1487
1461 1455 1455 1458 1458 1457 1456 1456 1455 1455 1455 1454 1452 1451 1451 1451 1451 1450 1451 1451 1452 1451 1452 1453 1454 1455 1456 1458 1460 1462 1464 1466 1468 1470 1473 1475 1477 1478 1479 1481 1482 1483 1483 1484
1463 1456 1456 1462 1459 1458 1457 1456 1456 1456 1457 1454 1453 1453 1452 1452 1452 1451 1452 1452 1452 1451 1451 1453 1454 1455 1456 1457 1459 1461 1463 1465 1466 1469 1470 1472 1474 1476 1477 1478 1479 1479 1480 1480
1465 1463 1469 1464 1457 1456 1455 1456 1456 1456 1455 1455 1455 1454 1454 1454 1453 1453 1453 1452 1452 1452 1452 1453 1454 1455 1456 1457 1459 1460 1462 1463 1465 1467 1468 1470 1471 1473 1474 1475 1475 1476 1476 1477
1468 1467 1463 1459 1457 1457 1457 1457 1457 1456 1455 1455 1454 1453 1454 1454 1453 1453 1453 1453 1452 1452 1452 1453 1453 1454 1455 1457 1458 1459 1461 1462 1464 1465 1467 1468 1469 1470 1471 1472 1472 1473 1473 1473
1468 1468 1466 1463 1458 1456 1458 1459 1457 1456 1455 1455 1454 1456 1458 1455 1454 1453 1453 1452 1452 1452 1452 1453 1453 1454 1455 1456 1457 1458 1460 1461 1463 1464 1465 1466 1466 1468 1468 1469 1469 1470 1470 1470
1470 1469 1466 1463 1459 1456 1463 1464 1459 1457 1456 1455 1455 1457 1457 1456 1455 1454 1453 1452 1452 1452 1452 1453 1453 1454 1455 1455 1456 1458 1459 1460 1461 1462 1463 1464 1464 1465 1466 1465 1466 1466 1467 1467
1471 1471 1471 1463 1460 1463 1464 1461 1459 1458 1457 1456 1455 1455 1455 1455 1454 1453 1453 1453 1452 1452 1452 1453 1453 1454 1454 1455 1456 1458 1458 1459 1460 1461 1461 1462 1462 1463 1463 1463 1463 1463 1463 1463
1471 1471 1466 1463 1463 1463 1462 1461 1459 1458 1457 1456 1455 1454 1454 1454 1454 1453 1453 1453 1452 1452 1452 1452 1453 1453 1454 1455 1456 1456 1457 1457 1458 1459 1459 1460 1460 1460 1461 1460 1460 1460 1460 1460
1467 1465 1464 1463 1462 1462 1461 1460 1458 1457 1456 1455 1454 1454 1453 1453 1453 1452 1452 1452 1452 1451 1451 1451 1452 1453 1453 1454 1454 1455 1455 1455 1456 1457 1457 1458 1458 1458 1458 1458 1458 1458 1458 1457
1466 1464 1462 1461 1461 1460 1459 1458 1456 1455 1455 1455 1454 1453 1452 1452 1452 1452 1451 1451 1451 1451 1451 1451 1451 1452 1452 1452 1453 1453 1453 1454 1454 1455 1455 1455 1456 1456 1456 1456 1456 1456 1455 1455
1465 1463 1463 1461 1460 1459 1457 1456 1455 1454 1454 1454 1453 1452 1451 1451 1451 1450 1450 1450 1450 1450 1450 1450 1450 1450 1450 1451 1451 1451 1451 1452 1452 1452 1453 1453 1453 1453 1453 1454 1453 1453 1453 1453
1462 1461 1460 1459 1458 1457 1456 1455 1454 1453 1452 1452 1451 1451 1450 1449 1449 1449 1449 1449 1449 1449 1448 1448 1448 1448 1449 1449 1449 1449 1449 1449 1450 1450 1450 1450 1450 1450 1450 1450 1450 1450 1450 1450
1460 1459 1458 1457 1456 1455 1454 1453 1452 1451 1451 1450 1450 1449 1449 1448 1448 1447 1447 1447 1447 1447 1447 1447 1447 1446 1447 1447 1447 1447 1447 1448 1448 1448 1448 1448 1448 1448 1448 1447 1447 1447 1447 1447
1457 1456 1456 1454 1454 1453 1452 1451 1450 1449 1449 1448 1448 1447 1447 1446 1446 1446 1446 1446 1446 1445 1445 1445 1445 1445 1445 1445 1445 1445 1446 1446 1446 1446 1446 1446 1446 1446 1446 1445 1445 1444 1444 1444
1454 1453 1453 1452 1451 1451 1450 1449 1448 1447 1446 1446 1446 1445 1445 1445 1444 1444 1444 1444 1444 1443 1443 1443 1443 1444 1444 1444 1443 1444 1444 1444 1444 1444 1444 1444 1444 1444 1443 1443 1443 1442 1441 1441
1451 1451 1450 1449 1449 1448 1447 1447 1446 1445 1444 1444 1443 1443 1443 1443 1443 1442 1442 1442 1442 1442 1442 1442 1442 1442 1442 1442 1442 1442 1442 1442 1442 1442 1442 1442 1442 1441 1441 1441 1440 1440 1439 1439
1449 1449 1448 1447 1446 1446 1445 1444 1444 1443 1442 1442 1441 1441 1441 1441 1441 1441 1441 1441 1441 1441 1441 1441 1441 1441 1441 1441 1440 1440 1440 1440 1440 1440 1439 1439 1439 1439 1439 1438 1438 1438 1437 1437
1446 1446 1446 1445 1444 1444 1443 1442 1442 1441 1440 1440 1440 1440 1440 1440 1440 1439 1439 1439 1439 1439 1440 1440 1440 1439 1439 1439 1439 1439 1439 1438 1438 1438 1438 1437 1437 1437 1437 1436 1436 1435 1435 1434
1444 1444 1443 1443 1442 1442 1441 1440 1440 1439 1439 1438 1438 1438 1438 1438 1438 1438 1438 1438 1438 1438 1438 1438 1438 1438 1438 1438 1438 1438 1437 1437 1437 1436 1436 1436 1435 1435 1434 1434 1434 1433 1433 1432
1442 1442 1441 1441 1441 1440 1440 1439 1439 1438 1438 1438 1438 1437 1438 1438 1438 1438 1437 1437 1438 1438 1438 1437 1437 1437 1437 1437 1437 1436 1436 1436 1435 1435 1435 1434 1434 1433 1433 1432 1432 1431 1431 1430
1441 1440 1440 1440 1439 1439 1439 1438 1438 1437 1437 1437 1437 1437 1437 1437 1437 1437 1437 1437 1437 1437 1436 1436 1436 1436 1436 1436 1436 1436 1435 1435 1434 1434 1433 1433 1432 1432 1431 1430 1430 1429 1429 1428
1439 1439 1439 1438 1438 1438 1438 1438 1437 1437 1437 1437 1437 1436 1436 1436 1436 1436 1436 1437 1436 1436 1436 1436 1436 1435 1435 1435 1435 1434 1434 1434 1433 1433 1432 1432 1431 1430 1430 1429 1428 1428 1427 1426
1438 1438 1437 1437 1437 1437 1437 1437 1437 1437 1437 1436 1436 1436 1436 1436 1436 1436 1436 1436 1436 1435 1435 1435 1435 1435 1435 1434 1434 1434 1433 1433 1432 1432 1431 1431 1430 1429 1429 1428 1427 1426 1425 1424
1436 1436 1436 1436 1436 1436 1436 1436 1436 1436 1436 1436 1436 1436 1436 1436 1436 1435 1435 1435 1435 1435 1435 1435 1435 1434 1434 1434 1434 1433 1433 1432 1431 1431 1430 1430 1429 1428 1427 1426 1425 1424 1423 1422
1434 1434 1434 1434 1434 1434 1435 1435 1435 1435 1435 1435 1435 1435 1435 1435 1435 1435 1435 1435 1435 1435 1434 1434 1434 1434 1434 1433 1433 1432 1432 1431 1430 1430 1429 1428 1427 1427 1426 1424 1423 1422 1421 1420
1432 1432 1432 1432 1432 1433 1433 1433 1433 1433 1434 1434 1434 1434 1434 1434 1434 1434 1434 1434 1434 1434 1434 1434 1433 1433 1433 1432 1432 1431 1431 1430 1429 1429 1428 1427 1426 1425 1424 1423 1421 1420 1419 1418